Location: Venise Bay
(45.0825°N, 73.1481°W)
Time: 17:28:36
(UTC-05:00)

ISS - Pass Details

Date: 25 January 2020
Orbit: 416 x 422 km, 51.6° (Epoch: 20 February)

Event Time Altitude Azimuth Distance (km) Brightness Sun altitude
Rises 17:46:11 0° 247° (WSW) 2,370 2.3 -10.1°
Reaches altitude 10° 17:48:18 10° 251° (WSW) 1,507 0.7 -10.4°
Maximum altitude 17:51:39 65° 333° (NNW) 468 -3.5 -11.0°
Enters shadow 17:54:09 17° 54° (NE) 1,157 -2.1 -11.4°
